Weather History for Pampa / Mesa Vista, TX

Change the Weather History Date:

Tuesday, February 12, 2013

  Actual Average (KBGD) Record (KBGD)
Temperature  
Mean Temperature 28 °F 42 °F  
Max Temperature 33 °F 54 °F 88 °F (1962)
Min Temperature 24 °F 29 °F 7 °F (1986)
Degree Days  
Heating Degree Days 36 24  
Month to date heating degree days 291  
Since 1 July heating degree days 2643  
Cooling Degree Days 0 0  
Month to date cooling degree days 0  
Year to date cooling degree days 0  
Moisture  
Dew Point 30 °F    
Average Humidity 96    
Maximum Humidity 100    
Minimum Humidity 70    
Precipitation  
Precipitation 0.18 in 0.03 in 0.51 in (2013)
Month to date precipitation 0.31  
Year to date precipitation 0.90  
Snow  
Snow 0.00 in - 4.70 in (2013)
Month to date snowfall  
Since 1 July snowfall  
Snow Depth -    
Sea Level Pressure  
Sea Level Pressure 30.04 in    
Wind  
Wind Speed 7 mph (North)    
Max Wind Speed 12 mph    
Max Gust Speed -    
Visibility 5 miles    
Events Rain , Snow    
T = Trace of Precipitation, MM = Missing Value Source: NWS Daily Summary

Daily Weather History Graph

Daily Weather History Graph

Search for Another Location

Airport:

Trip Planner

Search our weather history database for the weather conditions in past years. The results will help you decide how hot, cold, wet, or windy it might be!

Date:

Astronomy

Feb. 12, 2013 Rise Set
Actual Time 7:34 AM CST 6:23 PM CST
Civil Twilight 7:07 AM CST 6:49 PM CST
Nautical Twilight 6:37 AM CST 7:19 PM CST
Astronomical Twilight 6:07 AM CST 7:49 PM CST
Moon 8:39 AM CST (2/12) 9:17 PM CST (2/12)
Length of Visible Light 11h 41m
Length of Day
10h 48m
Waxing Crescent, 7% of the Moon is Illuminated
Feb 12
Waxing Crescent
Feb 17
First Quarter
Feb 25
Full
Mar 4
Last Quarter
Mar 11
New

Hourly Weather History & Observations

Time (CST) Temp. Windchill Dew Point Humidity Pressure Visibility Wind Dir Wind Speed Gust Speed Precip Events Conditions
12:15 AM 33.8 °F 27.7 °F 24.8 °F 70% 30.10 in 10.0 mi West 6.9 mph - N/A   Overcast
12:35 AM 32.0 °F 27.5 °F 26.6 °F 80% 30.08 in 7.0 mi North 4.6 mph - N/A Snow Light Snow
12:55 AM 32.0 °F 26.4 °F 26.6 °F 80% 30.07 in 10.0 mi North 5.8 mph - N/A   Overcast
1:15 AM 33.8 °F 27.7 °F 26.6 °F 75% 30.05 in 10.0 mi NE 6.9 mph - N/A   Overcast
1:35 AM 33.8 °F 29.6 °F 26.6 °F 75% 30.06 in 10.0 mi NNE 4.6 mph - N/A   Overcast
1:55 AM 33.8 °F - 26.6 °F 75% 30.06 in 10.0 mi Calm Calm - N/A   Overcast
2:15 AM 33.8 °F 29.6 °F 28.4 °F 81% 30.05 in 7.0 mi East 4.6 mph - N/A Snow Light Snow
2:35 AM 33.8 °F 27.7 °F 28.4 °F 81% 30.04 in 5.0 mi ENE 6.9 mph - N/A Snow Light Snow
3:15 AM 32.0 °F 23.6 °F 30.2 °F 93% 30.03 in 4.0 mi NNE 10.4 mph - N/A Snow Light Snow
3:35 AM 32.0 °F 24.8 °F 30.2 °F 93% 30.03 in 10.0 mi North 8.1 mph - N/A Rain Light Rain
3:55 AM 32.0 °F 25.6 °F 32.0 °F 100% 30.03 in 10.0 mi NNE 6.9 mph - N/A Rain Light Rain
4:15 AM 32.0 °F 25.6 °F 32.0 °F 100% 30.03 in 10.0 mi North 6.9 mph - N/A   Overcast
4:35 AM 33.8 °F 26.4 °F 32.0 °F 93% 30.01 in 10.0 mi NNE 9.2 mph - N/A Rain Light Rain
4:55 AM 32.0 °F 25.6 °F 32.0 °F 100% 30.01 in 3.0 mi NNE 6.9 mph - N/A Snow Light Snow
5:15 AM 32.0 °F 26.4 °F 32.0 °F 100% 30.01 in 1.2 mi NE 5.8 mph - 0.02 in Snow Light Snow
5:35 AM 32.0 °F 25.6 °F 32.0 °F 100% 30.01 in 1.2 mi NE 6.9 mph - 0.04 in Snow Light Snow
6:15 AM 32.0 °F 27.5 °F 32.0 °F 100% 30.00 in 1.0 mi ENE 4.6 mph - 0.01 in Snow Light Snow
6:35 AM 32.0 °F 25.6 °F 32.0 °F 100% 29.99 in 1.5 mi East 6.9 mph - 0.02 in Snow Light Snow
6:55 AM 32.0 °F 25.6 °F 32.0 °F 100% 29.99 in 1.0 mi East 6.9 mph - 0.03 in Snow Light Snow
7:15 AM 32.0 °F 24.8 °F 32.0 °F 100% 30.00 in 1.2 mi East 8.1 mph - 0.02 in Snow Light Snow
7:35 AM 32.0 °F 24.2 °F 32.0 °F 100% 30.00 in 1.2 mi East 9.2 mph - 0.03 in Snow Light Snow
7:55 AM 32.0 °F 24.8 °F 32.0 °F 100% 30.00 in 1.0 mi NE 8.1 mph - 0.05 in Snow Light Snow
8:15 AM 32.0 °F 25.6 °F 32.0 °F 100% 30.01 in 0.8 mi ENE 6.9 mph - 0.02 in Snow Light Snow
8:35 AM 32.0 °F 24.2 °F 32.0 °F 100% 30.03 in 0.2 mi East 9.2 mph - 0.04 in Snow Snow
9:15 AM 32.0 °F 24.8 °F 32.0 °F 100% 30.02 in 1.2 mi NE 8.1 mph - 0.01 in Snow Light Snow
9:35 AM 32.0 °F 23.0 °F 32.0 °F 100% 30.01 in 0.8 mi NE 11.5 mph - 0.01 in Snow Light Snow
10:15 AM 32.0 °F 24.8 °F 32.0 °F 100% 30.03 in 1.5 mi NNE 8.1 mph - N/A Snow Light Snow
10:35 AM 32.0 °F 24.2 °F 32.0 °F 100% 30.04 in 0.8 mi NNE 9.2 mph - N/A Snow Light Snow
10:55 AM 32.0 °F 24.2 °F 32.0 °F 100% 30.04 in 0.8 mi NNE 9.2 mph - N/A Snow Light Snow
11:15 AM 32.0 °F 24.8 °F 32.0 °F 100% 30.04 in 2.0 mi NE 8.1 mph - N/A Snow Light Snow
11:35 AM 32.0 °F 25.6 °F 32.0 °F 100% 30.04 in 1.5 mi NNE 6.9 mph - N/A Snow Light Snow
11:55 AM 32.0 °F 26.4 °F 32.0 °F 100% 30.05 in 1.5 mi NNE 5.8 mph - N/A Snow Light Snow
12:15 PM 32.0 °F 27.5 °F 32.0 °F 100% 30.05 in 1.5 mi NNE 4.6 mph - 0.01 in   Overcast
12:35 PM 32.0 °F 25.6 °F 32.0 °F 100% 30.05 in 2.0 mi North 6.9 mph - 0.01 in   Overcast
12:55 PM 32.0 °F 25.6 °F 32.0 °F 100% 30.05 in 0.5 mi North 6.9 mph - 0.01 in Snow Light Snow
1:15 PM 32.0 °F 23.6 °F 32.0 °F 100% 30.05 in 1.0 mi North 10.4 mph - N/A Snow Light Snow
1:35 PM 32.0 °F 24.2 °F 32.0 °F 100% 30.04 in 1.0 mi North 9.2 mph - N/A Snow Light Snow
1:55 PM 32.0 °F 24.2 °F 32.0 °F 100% 30.04 in 3.0 mi North 9.2 mph - N/A Rain Light Rain
2:15 PM 32.0 °F 24.2 °F 32.0 °F 100% 30.04 in 2.5 mi North 9.2 mph - N/A Snow Light Snow
2:35 PM 32.0 °F 24.8 °F 32.0 °F 100% 30.03 in 1.2 mi North 8.1 mph - N/A Snow Light Snow
2:55 PM 32.0 °F 26.4 °F 32.0 °F 100% 30.03 in 2.5 mi North 5.8 mph - N/A Snow Light Snow
3:15 PM 32.0 °F 27.5 °F 32.0 °F 100% 30.03 in 4.0 mi North 4.6 mph - N/A Rain Light Rain
3:35 PM 32.0 °F 25.6 °F 32.0 °F 100% 30.03 in 4.0 mi North 6.9 mph - N/A Snow Light Snow
3:55 PM 32.0 °F 28.7 °F 32.0 °F 100% 30.03 in 7.0 mi North 3.5 mph - N/A   Overcast
4:15 PM 33.8 °F 30.8 °F 32.0 °F 93% 30.03 in 10.0 mi NE 3.5 mph - N/A   Mostly Cloudy
4:35 PM 33.8 °F 30.8 °F 32.0 °F 93% 30.03 in 10.0 mi North 3.5 mph - N/A   Mostly Cloudy
5:15 PM 33.8 °F 28.6 °F 32.0 °F 93% 30.03 in 10.0 mi NNW 5.8 mph - N/A   Overcast
5:35 PM 32.0 °F 27.5 °F 32.0 °F 100% 30.03 in 10.0 mi NNW 4.6 mph - N/A   Overcast
5:55 PM 32.0 °F 28.7 °F 32.0 °F 100% 30.03 in 10.0 mi NW 3.5 mph - N/A   Overcast
6:15 PM 32.0 °F 28.7 °F 30.2 °F 93% 30.04 in 10.0 mi NW 3.5 mph - N/A   Mostly Cloudy
6:35 PM 32.0 °F - 32.0 °F 100% 30.04 in 10.0 mi Calm Calm - N/A   Overcast
6:55 PM 32.0 °F 27.5 °F 30.2 °F 93% 30.04 in 10.0 mi West 4.6 mph - N/A   Scattered Clouds
7:15 PM 32.0 °F 28.7 °F 30.2 °F 93% 30.05 in 10.0 mi WSW 3.5 mph - N/A   Scattered Clouds
7:35 PM 30.2 °F 25.4 °F 30.2 °F 100% 30.04 in 4.0 mi SW 4.6 mph - N/A   Clear
7:55 PM 26.6 °F 20.0 °F 26.6 °F 100% 30.05 in 7.0 mi SW 5.8 mph - N/A   Clear
8:15 PM 28.4 °F 21.2 °F 26.6 °F 93% 30.05 in 7.0 mi WSW 6.9 mph - N/A   Clear
8:35 PM 26.6 °F 18.2 °F 26.6 °F 100% 30.05 in 7.0 mi WSW 8.1 mph - N/A   Clear
8:55 PM 26.6 °F 17.5 °F 26.6 °F 100% 30.06 in 7.0 mi WSW 9.2 mph - N/A   Clear
9:15 PM 28.4 °F 20.4 °F 26.6 °F 93% 30.07 in 7.0 mi WSW 8.1 mph - N/A   Clear
9:35 PM 26.6 °F 19.1 °F 26.6 °F 100% 30.07 in 7.0 mi WSW 6.9 mph - N/A   Clear
9:55 PM 26.6 °F 18.2 °F 26.6 °F 100% 30.06 in 7.0 mi WSW 8.1 mph - N/A   Clear
10:15 PM 26.6 °F 18.2 °F 26.6 °F 100% 30.07 in 7.0 mi WSW 8.1 mph - N/A   Clear
10:35 PM 26.6 °F 19.1 °F 26.6 °F 100% 30.07 in 7.0 mi SW 6.9 mph - N/A   Clear
10:55 PM 26.6 °F 19.1 °F 24.8 °F 93% 30.06 in 7.0 mi WSW 6.9 mph - N/A   Clear
11:15 PM 26.6 °F 19.1 °F 24.8 °F 93% 30.06 in 10.0 mi WSW 6.9 mph - N/A   Clear
11:35 PM 24.8 °F 16.9 °F 23.0 °F 93% 30.06 in 7.0 mi SW 6.9 mph - N/A   Clear
11:55 PM 24.8 °F 15.3 °F 23.0 °F 93% 30.06 in 10.0 mi SW 9.2 mph - N/A   Clear